Location: Days
(41.3591°N, 106.7339°W)
Time: 19:22:09
(UTC+00:00)

RS-15 - Pass Details

Date: 04 July 2022
Orbit: 1881 x 2163 km, 64.8° (Epoch: 15 August)

Event Time Altitude Azimuth Distance (km) Brightness Sun altitude
Rises 04:16:40 0° 320° (NW) 5,690 12.5 -14.1°
Reaches altitude 10° 04:20:41 10° 329° (NNW) 4,691 11.4 -14.6°
Maximum altitude 04:31:55 38° 35° (NE) 2,987 9.1 -15.9°
Drops below altitude 10° 04:42:50 10° 100° (E) 4,583 9.6 -17.1°
Enters shadow 04:44:13 - 103° (ESE) 4,923 9.7 -17.3°
